{"data":{"norad_id":59082,"intl_designator":"2024-041J","name":"STARLINK-31286","alt_names":[],"object_type":"PAYLOAD","status":"ACTIVE","operator":null,"country":"US","launch_date":"2024-02-29","launch_site_code":"AFETR","launch_vehicle":null,"mission":null,"orbit_class":"UNKNOWN","rcs_meters":null,"size_class":null,"mass_kg":null,"dimensions":null,"purposes":["comms"],"wikipedia_slug":null,"has_3d_model":false,"image_url":null,"decayed_at":null,"tle_current":{"epoch":"2026-09-20T19:12:54.810432Z","epoch_age_seconds":129522,"freshness":"FRESH","line1":"1 59082U 24041J   26263.80063438  .00000434  00000+0  25288-4 0  9995","line2":"2 59082  43.0013 288.6118 0001277 260.8254  99.2453 15.27575818144195","mean_motion":15.27575818,"eccentricity":0.0001277,"inclination_deg":43.0013,"raan_deg":288.6118,"arg_perigee_deg":260.8254,"mean_anomaly_deg":99.2453,"bstar":2.5288e-5,"rev_number":14419,"period_min":94.267006784995,"perigee_km":482.18544341711,"apogee_km":483.93779354427,"semimajor_km":6861.1986184807,"source":"CELESTRAK","updated_at":"2026-09-21T09:00:34.034966Z"}}}